Location: Gebenbach
(49.5378°N, 11.8735°E)
Time: 05:10:03
(UTC+00:00)

CSL-04 DEB - Pass Details

Date: 29 October 2020
Orbit: 545 x 628 km, 98.8° (Epoch: 25 November)

Event Time Altitude Azimuth Distance (km) Brightness Sun altitude
Rises 16:28:50 0° 15° (NNE) 2,737 7.6 -6.1°
Reaches altitude 10° 16:30:58 10° 16° (NNE) 1,832 6.7 -6.4°
Maximum altitude 16:34:55 83° 105° (ESE) 557 4.3 -7.0°
Drops below altitude 10° 16:38:50 10° 194° (SSW) 1,812 7.3 -7.7°
Sets 16:40:56 0° 195° (SSW) 2,703 8.2 -8.0°
